SCP
7 5 3 3 6 9 7 6 6 6 5 4 4 4 4 4 4 4 3 3 2 2 2 1 1 1 1 1 1 1 1 1 1 1 1 0 0 1 1 1 1 1 1
5 4 3 3 5 6 6 6 6 6 5 4 4 4 4 4 5 5 4 3 3 3 2 2 1 1 1 1 1 1 1 1 1 1 0 0 0 1 1 1 1 1 1
4 3 3 3 3 5 5 5 5 4 4 4 4 3 3 4 5 6 5 4 4 4 3 2 2 1 1 1 1 1 1 1 1 0 0 0 0 1 1 1 1 1 1
5 4 3 3 3 3 4 4 4 3 2 2 3 4 3 3 4 5 6 5 4 4 4 3 3 2 2 1 1 1 1 0 0 0 0 0 0 1 1 1 1 1 1
7 5 4 4 3 3 3 3 3 2 1 2 3 4 4 3 3 4 5 5 5 5 4 4 4 3 2 2 1 1 1 1 1 0 0 0 1 1 1 1 1 1 1
7 6 5 5 4 4 3 3 3 2 2 2 3 4 4 4 3 2 3 3 5 5 5 5 5 4 4 3 2 1 1 1 1 1 1 1 1 1 1 1 1 1 1
8 7 7 7 6 5 4 3 3 2 2 3 3 3 4 4 3 2 1 2 3 5 6 6 6 6 5 4 3 2 1 1 1 1 1 1 1 1 1 1 1 1 1
8 8 8 8 8 7 6 5 4 4 4 4 4 3 3 4 3 2 1 2 2 3 5 7 7 6 6 5 4 3 2 1 1 1 1 1 1 0 0 0 1 0 0
9 9 11 11 11 10 9 8 7 6 5 5 5 5 4 4 3 2 2 2 2 2 4 5 7 6 5 4 4 3 2 2 1 1 0 0 0 0 0 0 0 0 0
8 10 13 14 13 11 9 8 8 7 6 5 5 5 4 3 2 1 2 3 4 2 2 3 5 4 3 2 3 4 3 2 2 1 1 0 0 0 0 0 0 0 0
8 10 13 14 12 9 7 6 6 6 5 4 3 3 3 2 1 1 2 4 5 4 2 2 3 2 1 1 2 4 3 3 2 1 1 1 1 1 1 1 1 1 1
7 8 10 11 9 6 4 5 5 4 4 3 2 2 2 1 1 1 1 3 5 5 4 3 2 1 1 0 1 2 2 2 2 2 1 1 1 1 1 1 1 1 1
6 6 8 8 6 4 3 4 3 3 3 3 3 2 2 2 1 1 0 1 3 5 5 4 2 1 0 0 0 1 1 3 3 3 2 1 1 1 1 1 1 1 1
5 5 5 6 5 4 3 2 2 2 2 2 2 2 2 2 1 1 1 1 2 4 5 5 3 1 1 1 1 1 1 3 5 4 2 2 1 2 2 1 1 1 1
4 4 4 5 4 4 3 2 1 1 1 1 2 2 2 2 2 1 1 2 3 4 5 5 3 2 2 1 1 1 1 3 5 5 4 2 2 2 2 2 2 2 2
4 4 4 4 4 3 2 2 1 1 1 1 1 1 1 1 1 0 0 1 2 3 4 5 5 4 3 3 2 2 2 2 4 5 5 4 3 3 2 2 2 2 2
4 3 3 4 3 3 2 2 1 1 0 0 0 0 0 0 0 0 0 0 1 1 4 6 7 6 5 5 4 3 2 2 2 3 4 4 4 3 3 2 2 2 2
4 4 4 4 4 4 3 2 2 1 0 0 0 0 0 0 0 0 0 0 0 1 4 6 7 8 7 7 6 5 3 2 1 2 3 3 3 3 3 2 2 2 2
5 5 5 6 7 6 5 4 3 2 1 0 0 0 0 0 0 0 0 1 1 2 3 5 7 8 8 7 6 4 3 1 1 1 2 2 2 2 2 3 3 3 3
8 7 7 9 10 9 7 6 4 3 1 1 0 0 0 0 0 0 0 1 2 2 3 3 4 5 5 5 4 2 1 1 0 1 1 2 2 2 2 2 3 3 3
10 9 8 10 11 11 10 7 5 3 2 1 0 0 0 0 0 1 1 2 2 2 2 2 1 2 2 1 1 1 0 0 0 1 1 2 2 2 2 2 2 3 3
11 10 9 10 10 10 9 7 4 3 1 0 0 0 0 0 1 1 1 2 2 2 1 1 1 0 0 0 0 0 0 0 0 0 1 1 2 2 2 2 2 3 3
9 9 8 8 7 6 5 3 2 1 1 0 0 0 0 0 1 1 1 1 2 2 1 0 0 0 0 0 0 0 0 0 0 0 0 1 1 2 2 2 2 2 2
5 5 5 5 3 2 1 1 0 0 0 0 0 0 1 1 1 1 1 1 1 1 1 0 0 0 0 0 0 0 0 0 0 0 0 0 1 1 1 1 1 1 1
2 2 2 2 1 1 0 0 0 0 0 0 0 0 1 1 1 1 1 1 1 1 1 1 0 0 0 0 0 0 0 0 0 0 0 1 1 1 1 0 0 0 0
1 1 1 1 0 0 0 0 0 0 0 0 0 0 1 1 1 1 1 1 1 1 1 1 1 0 0 0 0 0 0 0 0 0 0 1 1 1 1 0 0 0 0
Wind_Speed
4 3 3 2 2 2 1 2 2 1 1 2 2 2 2 2 2 2 2 1 1 1 1 1 1 1 0 0 1 1 1 2 2 2 1 1 0 1 1 1 1 1 1
5 4 3 2 2 2 2 2 1 1 1 2 2 1 2 2 2 2 2 1 1 2 2 1 1 1 0 0 1 1 1 1 2 1 1 1 1 2 1 1 1 1 1
4 4 3 2 2 2 3 2 2 2 1 1 1 2 2 2 2 2 2 2 2 2 2 2 2 2 1 1 1 1 1 1 2 2 1 1 1 1 0 1 1 1 1
4 5 4 4 4 4 3 2 2 2 2 2 1 2 2 2 2 2 2 2 2 2 3 3 3 3 4 3 2 2 2 1 1 2 1 1 1 1 0 0 1 1 1
5 4 4 3 3 3 2 2 2 2 3 2 2 2 2 2 2 2 2 3 3 3 3 3 4 4 5 4 3 3 3 2 2 2 1 1 1 1 1 1 1 1 1
5 4 3 3 3 3 3 2 2 2 3 2 2 3 2 3 2 3 3 3 3 3 4 4 4 4 4 4 4 5 5 5 4 3 2 3 3 3 2 2 1 1 2
4 4 4 4 3 3 3 3 3 3 2 2 3 3 3 3 4 3 4 3 3 3 4 3 3 2 2 3 3 4 5 6 6 5 5 5 4 4 3 2 2 2 3
3 4 4 3 3 3 3 3 3 3 3 3 3 3 3 4 3 3 3 2 3 3 3 4 4 3 3 4 3 2 3 4 5 5 5 5 5 4 5 4 3 1 1
3 4 4 4 4 3 4 4 4 3 3 3 3 3 4 4 4 4 3 2 2 3 3 3 3 4 5 5 4 3 3 3 4 5 6 5 5 5 4 2 2 1 1
4 4 4 4 4 4 4 4 3 3 3 2 3 3 4 4 4 4 4 2 2 2 2 3 4 5 5 6 5 5 5 4 3 2 3 3 3 3 4 5 4 3 2
4 3 3 4 4 4 3 2 2 2 2 2 2 3 3 3 4 5 4 3 3 3 2 3 3 4 5 6 5 5 7 5 3 3 2 2 2 2 2 3 4 4 3
2 2 3 3 3 2 2 2 2 3 2 1 2 3 2 2 3 4 4 4 4 3 3 3 3 4 5 5 4 5 6 4 2 2 2 2 2 2 3 3 3 3 4
2 2 2 2 2 2 2 2 2 2 2 2 2 2 3 2 2 3 3 3 3 2 2 3 3 4 4 4 4 5 4 3 3 2 3 3 3 2 2 1 1 1 1
3 2 2 1 1 1 1 2 2 3 3 2 2 3 3 2 2 1 1 1 1 1 2 2 2 2 2 3 2 2 2 3 3 3 3 2 1 1 1 2 1 1 0
2 2 2 2 2 2 2 2 3 3 4 4 4 3 3 3 5 5 3 2 2 3 1 0 0 0 1 1 1 1 1 2 2 2 2 2 1 1 1 1 1 1 1
3 2 2 2 2 2 2 2 3 3 4 5 6 6 5 6 6 5 5 4 4 4 2 1 2 2 2 2 2 2 2 2 3 2 2 2 2 2 1 1 1 1 1
4 4 3 2 2 2 2 2 2 3 3 4 6 7 7 7 6 5 5 4 3 5 2 2 2 2 3 2 2 2 3 3 3 3 3 3 2 2 2 1 1 1 1
4 5 4 3 3 3 3 3 3 2 2 3 4 5 6 6 6 5 4 2 1 1 2 3 3 3 3 3 2 2 2 2 2 3 3 3 3 2 2 2 1 1 1
4 3 3 3 3 3 3 3 3 3 3 3 2 3 4 3 3 3 4 3 3 3 3 3 3 3 2 2 2 2 2 2 2 2 3 2 2 2 2 2 2 2 1
3 5 4 3 3 3 2 2 2 3 3 3 3 3 1 1 1 2 3 3 3 3 3 3 3 2 2 2 2 2 1 1 2 2 2 2 2 2 2 2 2 2 2
2 3 4 2 2 3 2 2 2 2 3 3 3 4 5 3 3 3 3 4 4 4 3 3 2 2 2 2 2 2 3 2 2 2 2 2 2 2 2 2 2 2 2
2 2 2 2 2 2 2 2 2 2 2 3 2 3 5 3 2 2 3 3 4 3 3 3 3 2 2 2 2 2 2 2 2 2 2 2 2 2 2 2 2 2 2
2 2 2 2 2 3 2 2 2 2 2 2 2 2 2 2 2 2 2 2 2 2 2 2 2 2 1 1 2 3 3 3 2 2 3 2 2 2 2 2 3 2 2
2 2 2 2 2 2 2 2 2 2 2 2 2 2 1 2 2 2 2 2 2 2 2 2 2 3 3 1 1 1 2 2 2 2 3 3 2 2 2 2 2 3 3
2 2 2 2 2 2 2 2 2 2 2 2 1 1 1 1 1 1 1 2 2 2 2 2 2 2 2 2 2 2 2 2 2 2 2 2 3 2 2 2 2 2 2
2 2 2 2 2 2 2 2 2 2 2 2 1 1 2 1 1 1 2 2 2 2 2 1 2 2 2 2 3 3 3 2 2 2 2 2 2 2 2 2 2 2 2
Wind_Direction
174 179 178 182 202 202 193 208 207 210 198 203 193 185 194 203 201 187 203 188 189 236 250 194 237 230 162 190 141 134 136 140 173 267 274 290 230 267 279 251 252 246 245
180 174 181 185 188 200 217 223 199 198 203 210 205 190 205 211 208 191 208 213 209 227 247 220 233 225 194 225 162 167 175 167 157 208 284 280 251 236 230 217 243 242 244
166 168 180 179 186 217 222 223 212 197 201 211 195 209 213 216 218 221 216 229 232 227 224 214 220 187 216 218 185 189 194 169 148 161 239 262 251 241 264 276 267 280 253
161 169 185 193 195 213 218 215 212 209 212 222 222 228 213 212 219 214 211 231 241 243 233 221 215 202 206 202 197 194 180 159 146 151 214 260 262 261 150 225 305 305 287
163 175 195 204 202 201 203 212 210 220 237 230 214 223 222 218 225 211 210 222 226 243 250 241 230 217 201 195 193 188 174 170 170 173 203 235 251 229 226 231 240 286 300
169 187 192 191 202 205 205 208 211 230 235 229 224 221 228 236 239 218 210 222 221 232 246 249 244 221 214 209 208 198 184 181 187 188 197 209 235 224 220 215 214 195 275
175 184 184 187 204 212 208 208 223 230 226 233 239 220 225 239 238 237 228 214 223 231 233 238 243 229 209 210 222 220 216 212 196 188 195 211 218 216 197 213 218 205 226
177 188 188 186 207 222 215 219 225 225 219 227 238 234 235 246 241 242 241 227 231 240 233 225 224 231 219 201 201 211 219 224 216 210 208 217 219 214 196 196 200 205 265
181 195 198 196 207 220 223 225 223 219 229 229 229 228 236 250 237 227 218 216 241 253 249 237 227 225 223 202 185 197 222 248 241 229 222 223 224 215 185 147 144 141 258
202 205 205 202 208 218 226 222 218 216 228 233 245 241 237 238 234 225 213 204 232 253 264 258 247 233 223 202 191 191 210 232 230 240 240 242 230 224 197 180 178 177 204
211 209 210 212 214 212 214 208 199 196 206 244 264 266 247 233 231 226 218 205 215 232 249 266 262 234 220 212 203 204 215 212 209 210 217 228 230 226 221 206 190 184 198
202 207 219 222 221 212 194 210 192 182 187 237 267 284 273 249 233 229 225 221 215 211 233 246 253 247 232 222 213 221 214 201 193 197 202 217 216 225 230 222 215 212 212
198 216 230 225 226 205 190 198 204 200 198 216 213 246 276 273 258 239 218 224 225 220 240 255 262 257 245 234 232 220 201 187 183 198 211 221 216 211 208 218 238 235 267
200 216 207 194 222 223 206 200 209 209 205 211 215 227 251 267 265 262 241 226 224 244 275 282 278 263 251 245 241 227 206 194 190 204 214 214 177 165 192 192 196 195 239
203 214 208 200 201 216 226 224 224 227 209 203 215 213 217 244 247 232 211 209 205 215 220 269 347 307 276 272 246 228 207 194 203 202 190 178 172 177 206 201 171 161 191
206 214 211 208 207 208 225 273 270 244 245 230 221 219 229 232 235 226 222 221 216 192 164 202 223 224 234 231 220 220 212 210 209 195 185 182 183 189 204 215 159 166 205
207 212 207 206 205 201 207 216 263 303 283 247 243 238 234 232 222 220 221 217 205 171 182 222 225 222 228 229 220 215 221 221 201 186 185 186 183 185 182 189 188 193 220
215 214 207 204 205 204 211 213 211 220 261 288 277 255 246 234 224 219 205 154 167 196 220 224 226 226 221 219 217 212 216 214 189 181 186 188 183 178 178 187 196 206 215
217 213 210 207 206 206 209 208 215 221 227 245 276 287 262 245 241 226 183 186 202 216 229 235 229 224 219 214 213 206 196 192 183 180 185 186 185 178 190 204 206 212 196
229 229 218 208 209 213 209 201 210 214 224 230 235 238 218 157 204 219 208 210 211 219 219 223 231 231 216 203 194 182 180 190 185 189 196 195 195 188 194 204 202 199 206
222 229 229 216 207 203 196 199 209 211 219 228 234 226 201 198 212 217 213 213 211 212 212 210 212 222 222 200 183 176 176 195 204 202 198 199 192 190 193 196 204 202 202
203 210 213 212 211 194 190 194 197 209 226 237 246 233 214 212 215 218 222 228 219 208 201 193 196 203 202 191 180 173 178 193 204 201 206 202 193 194 191 195 201 205 204
207 211 207 208 204 195 195 198 195 213 232 244 241 227 209 224 230 218 215 222 218 198 184 177 175 183 189 179 174 169 178 195 208 203 191 192 192 188 189 201 207 208 215
209 206 200 204 198 201 206 205 205 220 230 232 224 212 204 212 224 225 212 202 198 190 172 166 179 185 185 180 174 169 175 191 201 198 180 178 186 189 193 204 209 208 213
203 202 203 206 199 198 202 198 204 225 220 213 205 200 207 213 233 228 194 177 174 167 166 170 178 176 184 197 185 174 175 175 183 187 185 180 189 200 204 209 205 197 209
221 217 214 215 202 200 198 197 200 197 193 201 193 200 214 211 208 201 179 164 160 159 161 169 179 185 192 202 195 174 170 177 185 190 184 180 186 204 205 210 208 206 198